World > North America > United States > Montana

Hourly Cut Bank, MT Regional Weather

Feedback E-mail the Weather

Quick WX

Cut Bank, MT Weather Maps

°F °C°F °C
Cut Bank Weather Map
UTC Time: 6/28/2022, 15:02
Your Time:

Cut Bank, MT Regional Weather

Expires:202206281500;;332545
ASUS45 KTFX 281410
RWRMT 
Montana Regional Weather Roundup
National Weather Service Great Falls MT
800 AM MDT TUE JUN 28 2022

NOTE: "FAIR" indicates few or no clouds below 12,000 feet with no
significant weather and/or obstructions to visibility.


MTZ009-010-012-014-046-048-049-054-281500-
East Slopes and Central Montana
  
CITY           SKY/WX    TMP DP  RH WIND       PRES   REMARKS
Cut Bank       MOSUNNY   59  52  77 N17G29    30.13F                  
Great Falls    MOSUNNY   60  45  57 NW13      30.15R                  
Helena         PTSUNNY   64  43  46 CALM      30.13R                  
Malmstrom AFB  SUNNY     60  44  55 NW9       30.15R                  
Augusta        PTSUNNY   61  45  55 N25G31    30.13F                  
Bowmans Corner FAIR      61  44  53 NE8       30.16R                  
Fairfield      FAIR      61  49  63 NW17G24   30.18R                  
Power          PTSUNNY   59  46  63 NW17      30.14R                  
Raynesford     FAIR      62  46  57 CALM      30.13R                  
Ulm            FAIR      60  45  58 NW8       30.15R                  
$$


SKY/WX - Weather  TMP - Temperature  DP - Dew Point  RH - Humidity
WIND - Wind Direction/Speed PRES - Barometric Pressure VSB - Visibility
WCI - Wind Chill Index E13G22 Wind - East Wind 13 mph/Gusts of 22 mph

Trending Headlines

Cut Bank Radar Loop



Cut Bank Quick Facts


National Two Day Weather Forecast


E-mail the Cut Bank Weather Forecast

Voice your opinion or tell us about page issues...